Weather in Maali

Russia / Republic of Dagestan     42°29′08″N   46°55′18″E
temp.,
°C
wind,
m/s
gust,
m/s
humid.,
%
clouds,
%
prec.,
mm/h
press.,
hPa
HPBL,
m
1 july, fri
fri100:00+13wsw01930 0.6 101411
03:00+12ssw11900 0.6 101310
06:00+15sw12753 0.1 101292
09:00+19ne21620 0.5 1010606
12:00+21ne336331 2.5 10101134
15:00+21ne226041 5.1 10091191
18:00+20nne116223 0.8 1009887
21:00+14wnw1191100 4.6 101312
2 july, sat
sat200:00+14ssw2292100 1.2 101352
03:00+14ssw118980 1.4 101111
06:00+15s118392 0.1 101192
09:00+17n227894 1.6 1010552
12:00+14nnw3392100 3.1 1011356
15:00+14nnw2275100 4.9 1012695
18:00+13n2285100 0.1 101270
21:00+12wnw2389100 0.4 1014103
3 july, sun
sun300:00+11wnw2286100 0.0 101426
03:00+11w2283100 0.1 101340
06:00+11wnw23801 0.0 1014141
09:00+16wnw34480 0.0 10131014
12:00+19nw35400 0.0 10121676
15:00+20nw334028 0.0 10122195
18:00+16n026373 0.1 101488
21:00+11wnw22716 0.1 101617
4 july, mon
mon400:00+9w32765 0.0 101621
03:00+9w2279100 0.0 101712
06:00+12w12731 0.0 1017119
09:00+16wnw23490 0.0 10161493
12:00+18wnw134130 0.0 10152053
15:00+19e224998 0.0 1015936
18:00+18se225840 0.0 1015253
21:00+12sw22723 0.0 101811
5 july, tue
tue500:00+10wsw11745 0.0 101811
03:00+9sw22760 0.0 101811
06:00+12wsw116910 0.0 101886
09:00+17nw12510 0.0 10171057
12:00+20n344499 0.0 10162203
15:00+20ne24466 0.1 10151633
18:00+18ne226416 0.7 1017532
21:00+13sse00820 0.8 102010